Tracking 29892 objects as of 21-Nov-2024
HD Live streaming from Space Station
objects crossing your sky now

NOAA 11 DEB

Track NOAA 11 DEB now!
10-day predictions


NORAD ID: 37242
Int'l Code: 1988-089E
Perigee: 799.1 km
Apogee: 819.9 km
Inclination: 98.5 °
Period: 100.9 minutes
Semi major axis: 7180 km
RCS: 0.3595 m2 (medium)
Launch date: September 24, 1988
Source: United States (US)
Launch site: AIR FORCE WESTERN TEST RANGE (AFWTR)

Note: This is SATELLITE DEBRIS
Your satellite tracking list
Your tracking list is empty




NASA's NSSDC Master Catalog

Two Line Element Set (TLE):
1 37242U 88089E   24325.53395497  .00007675  00000-0  31763-2 0  9999
2 37242  98.4740 305.2027 0014539 358.0567   2.0555 14.26827849867804
Source of the keplerian elements: AFSPC